Regional Weather Roundup
Issued by NWS

Home | Current Version | Previous Version | Text Only | Print | Product List | Glossary On
Versions: 1 2 3 4 5 6 7 8 9 10 11 12 13 14 15 16 17 18 19 20 21 22 23 24 25 26 27 28 29 30 31 32 33 34 35 36 37 38 39 40 41 42 43 44 45 46 47 48 49 50
000
ASUS45 KPSR 302310
RWRAZ

ARIZONA HOURLY REGIONAL WEATHER ROUNDUP
NATIONAL WEATHER SERVICE PHOENIX AZ
400 PM MST SUN APR 30 2017

NOTE: FAIR INDICATES FEW OR NO CLOUDS BELOW 12,000 FEET WITH NO
SIGNIFICANT WEATHER AND/OR OBSTRUCTIONS TO VISIBILITY.

AZZ001>003-036-010000-
NORTHWEST ARIZONA

CITY           SKY/WX    TMP DP  RH WIND       PRES   REMARKS
BULLHEAD CITY  SUNNY     90  12   5 CALM      29.91F
KINGMAN        SUNNY     79  20  11 W10G21    30.04F
$$

AZZ004>008-015-016-018-010000-
NORTH CENTRAL ARIZONA

CITY           SKY/WX    TMP DP  RH WIND       PRES   REMARKS
GRAND CANYON   SUNNY     62  13  14 W13       30.14F
WILLIAMS       SUNNY     64  12  13 VRB7G17   30.14F
PRESCOTT       SUNNY     72  13  10 VRB3      30.07F
FLAGSTAFF      SUNNY     63   6  10 W8        30.13F
PAYSON         SUNNY     72  12  10 W9G22     30.10F
PAGE           SUNNY     71  15  11 SE5       29.99F
$$

AZZ009>014-017-010000-
NORTHEAST ARIZONA

CITY           SKY/WX    TMP DP  RH WIND       PRES   REMARKS
WINSLOW        SUNNY     71   6   8 NW9       30.05F
SAINT JOHNS    SUNNY     65   8  10 W14G25    30.06F
WINDOW ROCK    SUNNY     61  15  16 W15G23    30.08F
SHOW LOW       SUNNY     61   7  11 NW8G20    30.12F
$$

AZZ540-542>544-546-548-010000-
GREATER PHOENIX AREA

CITY           SKY/WX    TMP DP  RH WIND       PRES   REMARKS
PHOENIX        MOSUNNY   85  16   7 W7        29.91F
BUCKEYE        SUNNY     86  16   7 SW5       29.91F
GLENDALE       SUNNY     88  10   5 SW6       29.93F
LUKE AFB       SUNNY     87  16   7 S12       29.90F
DEER VALLEY    SUNNY     82  15   8 S9        29.92F
SCOTTSDALE     SUNNY     84  15   7 W7        29.94F
MESA-FALCON    SUNNY    N/A N/A N/A W12       29.95F
MESA-GATEWAY   SUNNY     82  25  12 VRB5      29.95F
$$

AZZ539-553-010000-
SOUTHWEST MARICOPA COUNTY AND PINAL COUNTY

CITY           SKY/WX    TMP DP  RH WIND       PRES   REMARKS
CASA GRANDE    SUNNY     82  18   9 VRB6      29.95F
GILA BEND      FAIR      87   8   5 N7        29.91F
$$

AZZ503-504-507>509-010000-
SOUTHEAST ARIZONA

CITY           SKY/WX    TMP DP  RH WIND       PRES   REMARKS
TUCSON         SUNNY     82  11   7 W7        30.00F
DAVIS-MONTHAN  SUNNY     81  12   7 NW13G21   29.99F
NOGALES        SUNNY     79   7   6 NW10G18   30.04F
SIERRA VISTA   SUNNY     75  -1   5 NW13      30.08F
DOUGLAS        SUNNY     78   8   7 NW16G22   30.03F
SAFFORD        SUNNY     80  10   7 W20G26    29.94F
$$

AZZ532-010000-
SOUTHWEST ARIZONA

CITY           SKY/WX    TMP DP  RH WIND       PRES   REMARKS
YUMA           SUNNY     91  14   6 VRB6      29.91F
$$

CAZ041-043-047-048-061-525>527-560>570-010000-
SOUTHERN CALIFORNIA

CITY           SKY/WX    TMP DP  RH WIND       PRES   REMARKS
DOWNTOWN L.A.  SUNNY     79  39  23 W8        30.00F
L.A. AIRPORT   SUNNY     71  53  52 W15       30.01F
SAN DIEGO      SUNNY     76  48  37 NW10      30.01F
BURBANK        SUNNY     83  20   9 S13       30.00F
ONTARIO        SUNNY     86  15   7 SW15G23   29.99F
RIVERSIDE      SUNNY     86  22   9 W20       29.98F
PALM SPRINGS   SUNNY     94  16   6 SE8       29.92F
EL CENTRO NAS  SUNNY     90  14   6 SE8       29.92F
IMPERIAL       SUNNY     90  20   7 S3        29.90F
BLYTHE         SUNNY     89  12   5 S9        29.91F
NEEDLES        SUNNY     91  15   6 NE6       29.91F
$$

NVZ020-UTZ003-010000-
SOUTHERN NEVADA-UTAH

CITY           SKY/WX    TMP DP  RH WIND       PRES   REMARKS
LAS VEGAS      MOSUNNY   84  11   6 E9G17     29.94F
SALT LAKE CITY PTSUNNY   61  30  31 N5        30.08F
$$

NMZ009-TXZ055-010000-
NEW MEXICO-WEST TEXAS

CITY           SKY/WX    TMP DP  RH WIND       PRES   REMARKS
ALBUQUERQUE    MOSUNNY   64  10  12 NW16G25   29.97F
EL PASO        MOSUNNY   75   8   7 W17G26    29.96F
$$


........................KEY........................
SKY/WX - SKY CONDITION/WEATHER
TMP    - TEMPERATURE IN FAHRENHEIT
DP     - DEW POINT IN FAHRENHEIT
RH     - RELATIVE HUMIDITY IN PERCENT
WIND   - DIRECTION AND SPEED IN MILES PER HOUR (MPH)
VRB    - VARIABLE WIND DIRECTION
PRES   - MEAN SEA LEVEL PRESSURE IN INCHES OF MERCURY
         F - FALLING PRESSURE   R - RISING PRESSURE
         S - STEADY PRESSURE
VSB    - VISIBILITY IN MILES
HX     - HEAT INDEX IN FAHRENHEIT
WCI    - WIND CHILL INDEX IN FAHRENHEIT
TC     - TEMPERATURE IN CELSIUS WHICH IS ALSO KNOWN AS
         TEMPERATURE IN CENTIGRADE
AFB    - AIR FORCE BASE
         LUKE AFB IS LUKE AIR FORCE BASE
         DAVIS-MONTHAN IS DAVIS-MONTHAN AIR FORCE BASE
NAS    - NAVAL AIR STATION
         EL CENTRO NAS IS EL CENTRO NAVAL AIR STATION
N/A    - NOT AVAILABLE




USA.gov is the U.S. government's official web portal to all federal, state and local government web resources and services.